Regional Weather Roundup
Issued by NWS Kansas City/Pleasant Hill, MO

Home | Current Version | Previous Version | Text Only | Print | Product List | Glossary On
Versions: 1 2 3 4 5 6 7 8 9 10 11 12 13 14 15 16 17 18 19 20 21 22 23 24 25 26 27 28
000
ASUS43 KEAX 300010
RWREAX

WEATHER ROUNDUP FOR EASTERN KANSAS AND NORTHWEST MISSOURI
NATIONAL WEATHER SERVICE KANSAS CITY/PLEASANT HILL MO
700 PM CDT THU SEP 29 2016

KSZ040-057-103>105-MOZ028-029-037-043-300100-
...KANSAS CITY METROPOLITAN AREA...

CITY           SKY/WX    TMP DP  RH WIND       PRES   REMARKS
K.C. INTL      CLEAR     63  47  55 N6        30.28S
6HR MIN TEMP:  63; 6HR MAX TEMP:  72;

K.C. DOWNTOWN  CLEAR     69  47  45 N7        30.27S
6HR MIN TEMP:  69; 6HR MAX TEMP:  74;

LEES SUMMIT    CLEAR     66  48  52 NW6       30.28R
6HR MIN TEMP:  66; 6HR MAX TEMP:  72;

OLATHE - IXD   CLEAR     64  49  57 NW7       30.29S
6HR MIN TEMP:  64; 6HR MAX TEMP:  71;

OLATHE - OJC   CLEAR     67  46  47 N7        30.28S
6HR MIN TEMP:  66; 6HR MAX TEMP:  71;

LAWRENCE       CLEAR     65  51  60 NE5       30.29S

$$

MOZ001>008-011>017-020>025-030>033-038>040-044>046-053-054-300100-
...NORTHERN AND CENTRAL MISSOURI...

CITY           SKY/WX    TMP DP  RH WIND       PRES   REMARKS
ST. JOSEPH     CLEAR     65  49  56 N6        30.29S
6HR MIN TEMP:  65; 6HR MAX TEMP:  74;

MOSBY          CLEAR     64  48  55 N7        30.27S
WHITEMAN AFB   CLEAR     66  50  55 N9        30.23S
6HR MIN TEMP:  66; 6HR MAX TEMP:  74;

CLINTON        CLEAR     64  50  59 NW6       30.25S
SEDALIA        CLEAR     67  49  52 N7        30.24S
6HR MIN TEMP:  67; 6HR MAX TEMP:  77;

WARSAW         NOT AVBL
CHILLICOTHE      N/A     65  53  65 CALM      30.27S
6HR MIN TEMP:  65; 6HR MAX TEMP:  75;

KIRKSVILLE     CLEAR     66  49  54 N6        30.24S
6HR MIN TEMP:  66; 6HR MAX TEMP:  75;


$$

MOZ041-047>049-056>058-063>065-088>090-097-300100-
...EASTERN AND SOUTHERN MISSOURI...

CITY           SKY/WX    TMP DP  RH WIND       PRES   REMARKS
ST. LOUIS INTL CLOUDY    63  57  81 NW6       30.18S
6HR MIN TEMP:  63; 6HR MAX TEMP:  71; 6HR PCP:  0.01;

SPIRIT OF STL  CLOUDY    65  57  75 N9        30.17S
COLUMBIA       PTCLDY    68  52  56 NW9       30.21R
JEFFERSON CITY MOCLDY    70  52  52 NW3       30.19R
ROLLA          PTCLDY    65  53  65 NW5       30.19R
OSAGE BEACH    CLEAR     65  54  67 CALM      30.22R
SPRINGFIELD    CLEAR     63  48  58 NW6       30.23S
BRANSON        CLEAR     66  46  48 N9        30.23R
JOPLIN         CLEAR     65  49  56 N6        30.26S
WEST PLAINS    CLEAR     65  51  60 NW6       30.21R

$$

IAZ060-094-KSZ022-034>040-054-083-096-NEZ052-066-093-300100-
...KANSAS...SOUTHEAST NEBRASKA AND IOWA...

CITY           SKY/WX    TMP DP  RH WIND       PRES   REMARKS
TOPEKA         CLEAR     66  51  58 CALM      30.29S
6HR MIN TEMP:  66; 6HR MAX TEMP:  71;

MANHATTAN      CLEAR     64  51  62 NE3       30.30S
EMPORIA        CLEAR     63  51  65 NE6       30.29F
CHANUTE        CLEAR     66  49  54 N3        30.28R
WICHITA        PTCLDY    67  49  52 NE7       30.29F
OMAHA          CLEAR     68  48  48 NE6       30.32S
LINCOLN        CLEAR     65  48  54 NE9       30.33F
FALLS CITY     CLEAR     66  47  50 NE5       30.29F
LAMONI         CLEAR     64  51  62 N7        30.29S
DES MOINES     CLEAR     70  46  42 N7        30.29S

$$





USA.gov is the U.S. government's official web portal to all federal, state and local government web resources and services.